Cedar, IA

6:23 AM CDT on September 26, 2016 (GMT -0500)
Oskaloosa Municipal

Weather History for KOOA - September, 2013

Change the Weather History Date:

Saturday, September 7, 2013

  Actual Average (KOTM) Record (KOTM)
Temperature  
Mean Temperature 80 °F 68 °F  
Max Temperature 95 °F 79 °F 101 °F (1938)
Min Temperature 64 °F 57 °F 41 °F (1956)
Degree Days  
Heating Degree Days 0 2  
Month to date heating degree days 8  
Since 1 July heating degree days 19  
Cooling Degree Days 14 5  
Month to date cooling degree days 37  
Year to date cooling degree days 871  
Growing Degree Days 30 (Base 50)    
Moisture  
Dew Point 64 °F    
Average Humidity 62    
Maximum Humidity 79    
Minimum Humidity 36    
Precipitation  
Precipitation 0.00 in 0.14 in 1.99 in (1941)
Month to date precipitation 0.97  
Year to date precipitation 27.67  
Sea Level Pressure  
Sea Level Pressure 29.93 in    
Wind  
Wind Speed 6 mph (SSW)    
Max Wind Speed 12 mph    
Max Gust Speed 17 mph    
Visibility 10 miles    
Events      
T = Trace of Precipitation, MM = Missing Value Source: NWS Daily Summary

Daily Weather History Graph

Daily Weather History Graph

Search for Another Location

Airport or City:

Trip Planner

Search our weather history database for the weather conditions in past years. The results will help you decide how hot, cold, wet, or windy it might be!

Date:

Astronomy

Sep. 07, 2013 Rise Set
Actual Time 6:42 AM CDT 7:32 PM CDT
Civil Twilight 6:14 AM CDT 8:00 PM CDT
Nautical Twilight 5:41 AM CDT 8:33 PM CDT
Astronomical Twilight 5:06 AM CDT 9:07 PM CDT
Moon 8:59 AM CDT (9/7) 8:28 PM CDT (9/7)
Length of Visible Light 13h 45m
Length of Day
12h 49m
Waxing Crescent, 5% of the Moon is Illuminated
Sep 7
Waxing Crescent
Sep 12
First Quarter
Sep 19
Full
Sep 26
Last Quarter
Oct 4
New

Hourly Weather History & Observations

Time (CDT) Temp. Heat Index Dew Point Humidity Pressure Visibility Wind Dir Wind Speed Gust Speed Precip Events Conditions
12:15 AM 68.0 °F - 57.2 °F 68% 29.99 in 10.0 mi SSW 4.6 mph - N/A   Clear
12:35 AM 66.2 °F - 57.6 °F 74% 29.99 in 10.0 mi SSW 4.6 mph - N/A   Clear
12:55 AM 65.3 °F - 57.7 °F 76% 29.99 in 10.0 mi SSW 5.8 mph - N/A   Clear
1:15 AM 65.1 °F - 57.6 °F 76% 29.99 in 10.0 mi South 4.6 mph - N/A   Clear
1:35 AM 64.4 °F - 57.6 °F 78% 29.99 in 10.0 mi South 4.6 mph - N/A   Clear
1:55 AM 64.4 °F - 57.6 °F 78% 29.99 in 10.0 mi South 5.8 mph - N/A   Clear
2:15 AM 64.4 °F - 57.6 °F 78% 29.99 in 10.0 mi South 5.8 mph - N/A   Clear
2:35 AM 64.0 °F - 57.6 °F 79% 29.99 in 10.0 mi South 4.6 mph - N/A   Clear
2:55 AM 64.6 °F - 57.6 °F 78% 29.98 in 10.0 mi South 5.8 mph - N/A   Clear
3:15 AM 64.9 °F - 58.1 °F 78% 29.98 in 10.0 mi South 4.6 mph - N/A   Clear
3:35 AM 64.6 °F - 58.1 °F 79% 29.98 in 10.0 mi South 5.8 mph - N/A   Clear
3:55 AM 66.2 °F - 58.1 °F 75% 29.98 in 10.0 mi SSW 4.6 mph - N/A   Clear
4:15 AM 66.6 °F - 58.3 °F 75% 29.98 in 10.0 mi SSW 4.6 mph - N/A   Clear
4:35 AM 66.2 °F - 58.5 °F 76% 29.98 in 10.0 mi SSW 5.8 mph - N/A   Clear
4:55 AM 66.6 °F - 58.5 °F 75% 29.98 in 10.0 mi SSW 4.6 mph - N/A   Clear
5:15 AM 66.7 °F - 58.6 °F 75% 29.98 in 10.0 mi SSW 5.8 mph - N/A   Clear
5:35 AM 67.5 °F - 58.6 °F 73% 29.98 in 10.0 mi SSW 4.6 mph - N/A   Clear
5:55 AM 68.0 °F - 58.6 °F 72% 29.98 in 10.0 mi SSW 4.6 mph - N/A   Clear
6:15 AM 68.9 °F - 58.5 °F 69% 29.98 in 10.0 mi South 6.9 mph - N/A   Clear
6:35 AM 69.1 °F - 58.6 °F 69% 29.97 in 10.0 mi South 6.9 mph - N/A   Clear
6:55 AM 69.4 °F - 58.6 °F 68% 29.99 in 10.0 mi Calm Calm - N/A   Clear
7:15 AM 69.3 °F - 59.4 °F 71% 29.98 in 10.0 mi SSW 4.6 mph - N/A   Clear
7:35 AM 69.8 °F - 59.5 °F 70% 29.97 in 10.0 mi South 6.9 mph - N/A   Clear
7:55 AM 70.2 °F - 59.9 °F 70% 29.97 in 10.0 mi SSW 6.9 mph - N/A   Clear
8:15 AM 70.3 °F - 59.9 °F 69% 29.97 in 10.0 mi SSW 5.8 mph - N/A   Clear
8:35 AM 70.2 °F - 61.0 °F 73% 29.96 in 10.0 mi South 4.6 mph - N/A   Clear
8:55 AM 73.4 °F - 61.3 °F 66% 29.96 in 10.0 mi SSW 5.8 mph - N/A   Clear
9:15 AM 75.6 °F - 61.7 °F 62% 29.96 in 10.0 mi SW 10.4 mph - N/A   Clear
9:35 AM 76.8 °F - 62.2 °F 61% 29.96 in 10.0 mi SSW 10.4 mph - N/A   Clear
9:55 AM 78.3 °F - 63.0 °F 59% 29.97 in 10.0 mi SSW 8.1 mph - N/A   Clear
10:15 AM 80.1 °F 81.7 °F 63.9 °F 58% 29.96 in 10.0 mi SW 10.4 mph - N/A   Clear
10:35 AM 82.0 °F 83.6 °F 64.4 °F 55% 29.96 in 10.0 mi SW 10.4 mph - N/A   Clear
10:55 AM 83.8 °F 85.6 °F 64.9 °F 53% 29.96 in 10.0 mi SW 9.2 mph - N/A   Clear
11:15 AM 85.1 °F 86.6 °F 64.8 °F 50% 29.96 in 10.0 mi WSW 10.4 mph - N/A   Clear
11:35 AM 85.8 °F 87.4 °F 64.8 °F 49% 29.95 in 10.0 mi SSW 9.2 mph - N/A   Clear
11:55 AM 86.9 °F 88.6 °F 64.8 °F 48% 29.94 in 10.0 mi SSW 8.1 mph - N/A   Clear
12:15 PM 87.8 °F 89.4 °F 64.6 °F 46% 29.93 in 10.0 mi SSW 9.2 mph - N/A   Clear
12:35 PM 90.0 °F 92.0 °F 65.5 °F 44% 29.91 in 10.0 mi SSW 8.1 mph - N/A   Clear
12:55 PM 90.1 °F 92.0 °F 64.9 °F 43% 29.90 in 10.0 mi SSW 9.2 mph - N/A   Clear
1:15 PM 91.4 °F 93.2 °F 64.8 °F 41% 29.90 in 10.0 mi SSW 11.5 mph 17.3 mph N/A   Clear
1:35 PM 91.9 °F 94.1 °F 65.3 °F 41% 29.89 in 10.0 mi SSW 9.2 mph - N/A   Clear
1:55 PM 91.9 °F 93.7 °F 64.4 °F 40% 29.89 in 10.0 mi SW 11.5 mph 16.1 mph N/A   Clear
2:15 PM 92.8 °F 94.7 °F 64.8 °F 39% 29.88 in 10.0 mi SSW 11.5 mph 17.3 mph N/A   Clear
2:35 PM 93.4 °F 96.1 °F 65.7 °F 40% 29.87 in 10.0 mi SSW 9.2 mph - N/A   Clear
2:55 PM 94.3 °F 96.7 °F 64.8 °F 38% 29.87 in 10.0 mi SSW 11.5 mph - N/A   Clear
3:15 PM 95.0 °F 97.0 °F 64.2 °F 36% 29.86 in 10.0 mi SW 9.2 mph - N/A   Clear
3:35 PM 94.3 °F 96.2 °F 64.6 °F 37% 29.87 in 10.0 mi WSW 8.1 mph - N/A   Clear
3:55 PM 91.9 °F 94.5 °F 65.7 °F 42% 29.86 in 10.0 mi SW 6.9 mph - N/A   Clear
4:15 PM 92.1 °F 94.4 °F 65.5 °F 41% 29.86 in 10.0 mi SW 8.1 mph - N/A   Clear
4:35 PM 93.7 °F 98.2 °F 68.2 °F 43% 29.86 in 10.0 mi SW 5.8 mph - N/A   Clear
4:55 PM 93.2 °F 97.2 °F 67.8 °F 43% 29.86 in 10.0 mi SW 5.8 mph - N/A   Clear
5:15 PM 91.9 °F 95.9 °F 67.8 °F 45% 29.86 in 10.0 mi SW 5.8 mph - N/A   Clear
5:35 PM 90.7 °F 94.5 °F 68.0 °F 47% 29.85 in 10.0 mi WSW 4.6 mph - N/A   Clear
5:55 PM 89.1 °F 92.5 °F 67.5 °F 49% 29.85 in 10.0 mi SSW 4.6 mph - N/A   Clear
6:15 PM 87.8 °F 92.6 °F 69.6 °F 55% 29.85 in 10.0 mi SW 3.5 mph - N/A   Clear
6:35 PM 87.3 °F 91.6 °F 69.3 °F 55% 29.85 in 10.0 mi Calm Calm - N/A   Clear
6:55 PM 86.9 °F 90.3 °F 68.0 °F 53% 29.85 in 7.0 mi North 3.5 mph - N/A   Clear
7:35 PM 83.8 °F 88.1 °F 69.8 °F 63% 29.86 in 10.0 mi Calm Calm - N/A   Clear
7:55 PM 84.6 °F 87.9 °F 68.4 °F 58% 29.87 in 10.0 mi North 5.8 mph - N/A   Clear
8:15 PM 81.5 °F 84.8 °F 69.1 °F 66% 29.87 in 10.0 mi NNW 4.6 mph - N/A   Clear
8:35 PM 82.8 °F 86.2 °F 68.9 °F 63% 29.88 in 10.0 mi NNE 5.8 mph - N/A   Clear
8:55 PM 81.7 °F 84.9 °F 69.1 °F 65% 29.88 in 10.0 mi NE 4.6 mph - N/A   Clear
9:15 PM 80.1 °F 82.9 °F 69.3 °F 69% 29.88 in 10.0 mi NNE 5.8 mph - N/A   Clear
9:35 PM 78.6 °F - 69.4 °F 73% 29.88 in 10.0 mi North 4.6 mph - N/A   Clear
9:55 PM 77.9 °F - 69.3 °F 75% 29.88 in 10.0 mi North 4.6 mph - N/A   Clear
10:15 PM 77.9 °F - 69.3 °F 75% 29.88 in 10.0 mi North 4.6 mph - N/A   Clear
10:35 PM 77.9 °F - 69.3 °F 75% 29.88 in 10.0 mi North 4.6 mph - N/A   Clear
10:55 PM 77.5 °F - 69.4 °F 76% 29.88 in 10.0 mi North 4.6 mph - N/A   Clear
11:15 PM 76.8 °F - 69.4 °F 78% 29.88 in 10.0 mi North 4.6 mph - N/A   Clear
11:35 PM 76.3 °F - 69.3 °F 79% 29.88 in 10.0 mi North 4.6 mph - N/A   Clear
11:55 PM 76.1 °F - 69.3 °F 79% 29.87 in 10.0 mi North 3.5 mph - N/A   Clear